Scottsboro, AL

2:44 PM CST on February 13, 2016 (GMT -0600)
Scottsboro

Weather History for K4A6 - January, 2013

Change the Weather History Date:

Thursday, January 24, 2013

  Actual Average (KHSV) Record (KHSV)
Temperature  
Mean Temperature 42 °F 42 °F  
Max Temperature 50 °F 52 °F 75 °F (1967)
Min Temperature 35 °F 32 °F -4 °F (1963)
Degree Days  
Heating Degree Days 22 23  
Month to date heating degree days 573  
Since 1 July heating degree days 1754  
Cooling Degree Days 0 0  
Month to date cooling degree days 0  
Year to date cooling degree days 0  
Moisture  
Dew Point 21 °F    
Average Humidity 44    
Maximum Humidity 71    
Minimum Humidity 22    
Precipitation  
Precipitation 0.00 in 0.16 in 2.67 in (1964)
Month to date precipitation 3.81  
Year to date precipitation 3.81  
Snow  
Snow 0.00 in - - ()
Month to date snowfall  
Since 1 July snowfall  
Snow Depth -    
Sea Level Pressure  
Sea Level Pressure 30.31 in    
Wind  
Wind Speed 8 mph (NNE)    
Max Wind Speed 14 mph    
Max Gust Speed 21 mph    
Visibility 4 miles    
Events      
T = Trace of Precipitation, MM = Missing Value Source: NWS Daily Summary

Daily Weather History Graph

Daily Weather History Graph

Search for Another Location

Airport or City:

Trip Planner

Search our weather history database for the weather conditions in past years. The results will help you decide how hot, cold, wet, or windy it might be!

Date:

Astronomy

Jan. 24, 2013 Rise Set
Actual Time 6:47 AM CST 5:05 PM CST
Civil Twilight 6:20 AM CST 5:32 PM CST
Nautical Twilight 5:49 AM CST 6:03 PM CST
Astronomical Twilight 5:19 AM CST 6:33 PM CST
Moon 3:08 PM CST (1/24) 4:42 AM CST (1/24)
Length of Visible Light 11h 12m
Length of Day
10h 18m
Waxing Gibbous, 94% of the Moon is Illuminated
Jan 24
Waxing Gibbous
Jan 26
Full
Feb 3
Last Quarter
Feb 10
New
Feb 17
First Quarter

Hourly Weather History & Observations

Time (CST) Temp. Windchill Dew Point Humidity Pressure Visibility Wind Dir Wind Speed Gust Speed Precip Events Conditions
12:15 AM 50.0 °F - 39.2 °F 66% 30.20 in 5.0 mi West 8.1 mph - N/A   Haze
12:35 AM 50.0 °F - 39.2 °F 66% 30.20 in 5.0 mi West 9.2 mph - N/A   Haze
12:55 AM 50.0 °F - 39.2 °F 66% 30.20 in 5.0 mi West 8.1 mph - N/A   Haze
1:15 AM 50.0 °F - 39.2 °F 66% 30.20 in 5.0 mi WNW 6.9 mph - N/A   Haze
1:35 AM 50.0 °F - 39.2 °F 66% 30.20 in 5.0 mi WNW 9.2 mph - N/A   Haze
1:55 AM 50.0 °F - 39.2 °F 66% 30.20 in 5.0 mi NW 6.9 mph - N/A   Haze
2:15 AM 50.0 °F - 39.2 °F 66% 30.20 in 5.0 mi NNW 8.1 mph - N/A   Haze
2:35 AM 50.0 °F - 39.2 °F 66% 30.20 in 5.0 mi NNW 6.9 mph - N/A   Haze
2:55 AM 50.0 °F - 39.2 °F 66% 30.20 in 5.0 mi NW 5.8 mph - N/A   Haze
3:15 AM 50.0 °F - 39.2 °F 66% 30.20 in 5.0 mi NNW 8.1 mph - N/A   Haze
3:35 AM 48.2 °F - 39.2 °F 71% 30.20 in 5.0 mi North 11.5 mph 17.3 mph N/A   Haze
3:55 AM 48.2 °F - 37.4 °F 66% 30.20 in 5.0 mi North 10.4 mph 19.6 mph N/A   Haze
4:15 AM 48.2 °F - 35.6 °F 62% 30.20 in 5.0 mi NNW 11.5 mph 20.7 mph N/A   Haze
4:35 AM 46.4 °F 41.1 °F 35.6 °F 66% 30.22 in 5.0 mi North 11.5 mph 17.3 mph N/A   Haze
4:55 AM 46.4 °F 41.5 °F 35.6 °F 66% 30.22 in 5.0 mi North 10.4 mph 16.1 mph N/A   Haze
5:15 AM 46.4 °F 41.1 °F 33.8 °F 62% 30.24 in 5.0 mi North 11.5 mph 17.3 mph N/A   Haze
5:55 AM 44.6 °F 39.7 °F 32.0 °F 61% 30.26 in 5.0 mi NNE 9.2 mph - N/A   Haze
6:15 AM 42.8 °F 36.6 °F 30.2 °F 61% 30.27 in 5.0 mi NNE 11.5 mph 18.4 mph N/A   Haze
6:55 AM 41.0 °F 35.8 °F 26.6 °F 57% 30.29 in 3.0 mi North 8.1 mph - N/A   Haze
7:15 AM 39.2 °F 33.0 °F 26.6 °F 61% 30.31 in 3.0 mi North 9.2 mph - N/A   Haze
7:35 AM 39.2 °F 33.0 °F 24.8 °F 56% 30.32 in 3.0 mi North 9.2 mph - N/A   Haze
7:55 AM 39.2 °F 32.5 °F 23.0 °F 52% 30.34 in 3.0 mi NNE 10.4 mph - N/A   Haze
8:15 AM 39.2 °F 32.5 °F 19.4 °F 45% 30.34 in 3.0 mi North 10.4 mph 18.4 mph N/A   Haze
8:35 AM 39.2 °F 33.0 °F 17.6 °F 42% 30.35 in 3.0 mi North 9.2 mph - N/A   Haze
8:55 AM 39.2 °F 31.2 °F 15.8 °F 39% 30.36 in 3.0 mi NNE 13.8 mph - N/A   Haze
9:15 AM 41.0 °F 34.7 °F 15.8 °F 36% 30.37 in 3.0 mi North 10.4 mph - N/A   Haze
9:55 AM 41.0 °F 36.4 °F 15.8 °F 36% 30.37 in 3.0 mi NE 6.9 mph - N/A   Haze
10:15 AM 41.0 °F 37.1 °F 15.8 °F 36% 30.37 in 4.0 mi NE 5.8 mph - N/A   Haze
10:35 AM 42.8 °F 38.0 °F 15.8 °F 34% 30.38 in 4.0 mi North 8.1 mph - N/A   Haze
10:55 AM 44.6 °F 39.2 °F 15.8 °F 31% 30.38 in 3.0 mi NNE 10.4 mph - N/A   Haze
11:15 AM 44.6 °F 40.7 °F 15.8 °F 31% 30.37 in 3.0 mi North 6.9 mph - N/A   Haze
11:35 AM 44.6 °F 38.8 °F 14.0 °F 29% 30.36 in 3.0 mi North 11.5 mph - N/A   Haze
11:55 AM 44.6 °F 39.7 °F 12.2 °F 27% 30.36 in 4.0 mi North 9.2 mph - N/A   Haze
12:15 PM 44.6 °F 39.2 °F 12.2 °F 27% 30.37 in 4.0 mi NE 10.4 mph - N/A   Haze
12:35 PM 44.6 °F 39.7 °F 12.2 °F 27% 30.36 in 4.0 mi North 9.2 mph - N/A   Haze
12:55 PM 46.4 °F 41.5 °F 10.4 °F 23% 30.35 in 3.0 mi NNE 10.4 mph - N/A   Haze
1:15 PM 46.4 °F 41.5 °F 10.4 °F 23% 30.33 in 4.0 mi North 10.4 mph - N/A   Haze
1:35 PM 46.4 °F 42.4 °F 10.4 °F 23% 30.33 in 3.0 mi North 8.1 mph - N/A   Haze
1:55 PM 46.4 °F 43.5 °F 12.2 °F 25% 30.33 in 3.0 mi North 5.8 mph - N/A   Haze
2:15 PM 48.2 °F - 10.4 °F 22% 30.32 in 3.0 mi NNE 10.4 mph - N/A   Haze
2:35 PM 46.4 °F 41.5 °F 12.2 °F 25% 30.32 in 4.0 mi NNE 10.4 mph - N/A   Haze
2:55 PM 46.4 °F 42.4 °F 15.8 °F 29% 30.33 in 3.0 mi NE 8.1 mph - N/A   Haze
3:15 PM 46.4 °F 42.4 °F 15.8 °F 29% 30.33 in 4.0 mi NE 8.1 mph - N/A   Haze
3:35 PM 46.4 °F 44.3 °F 17.6 °F 32% 30.33 in 4.0 mi NE 4.6 mph - N/A   Haze
3:55 PM 46.4 °F 42.9 °F 17.6 °F 32% 30.33 in 3.0 mi NE 6.9 mph - N/A   Haze
4:15 PM 44.6 °F 42.2 °F 15.8 °F 31% 30.33 in 3.0 mi ENE 4.6 mph - N/A   Haze
4:35 PM 44.6 °F 40.7 °F 15.8 °F 31% 30.34 in 3.0 mi NE 6.9 mph - N/A   Haze
5:15 PM 41.0 °F 38.0 °F 19.4 °F 42% 30.34 in 4.0 mi NNE 4.6 mph - N/A   Haze
5:35 PM 39.2 °F 35.9 °F 19.4 °F 45% 30.35 in 4.0 mi NNE 4.6 mph - N/A   Haze
5:55 PM 39.2 °F 35.0 °F 17.6 °F 42% 30.36 in 5.0 mi NE 5.8 mph - N/A   Haze
6:15 PM 39.2 °F 33.0 °F 17.6 °F 42% 30.36 in 5.0 mi NE 9.2 mph - N/A   Haze
6:35 PM 37.4 °F 32.1 °F 17.6 °F 45% 30.36 in 4.0 mi NE 6.9 mph - N/A   Haze
6:55 PM 37.4 °F 30.8 °F 14.0 °F 38% 30.37 in 5.0 mi ENE 9.2 mph - N/A   Haze
7:15 PM 37.4 °F 32.8 °F 12.2 °F 36% 30.37 in 5.0 mi NE 5.8 mph - N/A   Haze
7:35 PM 35.6 °F 32.8 °F 14.0 °F 41% 30.37 in 5.0 mi NE 3.5 mph - N/A   Haze
7:55 PM 35.6 °F 31.7 °F 14.0 °F 41% 30.36 in 5.0 mi NE 4.6 mph - N/A   Haze
8:15 PM 35.6 °F 30.7 °F 12.2 °F 38% 30.35 in 5.0 mi NE 5.8 mph - N/A   Haze
8:35 PM 35.6 °F 31.7 °F 10.4 °F 35% 30.35 in 4.0 mi NE 4.6 mph - N/A   Haze
9:15 PM 35.6 °F 30.7 °F 10.4 °F 35% 30.34 in 5.0 mi ENE 5.8 mph - N/A   Haze
9:55 PM 35.6 °F 31.7 °F 12.2 °F 38% 30.36 in 5.0 mi NNE 4.6 mph - N/A   Haze
10:15 PM 35.6 °F 28.6 °F 10.4 °F 35% 30.35 in 4.0 mi NE 9.2 mph - N/A   Haze
10:55 PM 35.6 °F 29.9 °F 10.4 °F 35% 30.33 in 4.0 mi NE 6.9 mph - N/A   Haze
11:15 PM 35.6 °F 29.9 °F 10.4 °F 35% 30.34 in 4.0 mi NE 6.9 mph - N/A   Haze
11:55 PM 35.6 °F 29.2 °F 12.2 °F 38% 30.32 in 4.0 mi NE 8.1 mph - N/A   Haze